RH
27 19 11 10 11 11 11 11 14 18 20 22 21 23 25 29 37 36 36 38 40 41 47 53 58 65 72 75 67 69 75 74 74 72 70 64 64 57 52 51 47 43 46
23 19 14 9 7 7 8 8 10 13 18 19 19 22 23 29 37 42 43 43 45 47 51 59 62 68 77 76 77 64 64 63 60 62 63 61 57 54 53 55 52 51 52
24 19 10 8 8 8 9 10 12 14 17 18 20 21 23 30 39 44 44 46 47 53 66 76 74 68 74 68 68 68 74 70 66 60 56 52 48 51 50 57 56 45 38
16 10 9 9 9 9 10 11 13 15 17 19 21 24 26 32 38 42 42 48 53 59 68 78 84 80 78 72 62 59 62 66 59 56 51 51 47 53 45 47 41 30 32
11 10 9 10 9 9 10 11 13 16 18 19 22 24 29 34 40 42 44 50 50 53 57 74 79 82 82 72 58 52 50 59 68 64 55 48 43 37 32 33 30 31 27
12 11 10 11 11 10 11 11 13 15 17 19 22 27 32 35 38 41 44 44 43 47 49 70 79 83 74 74 60 54 54 58 68 79 67 48 34 32 31 34 38 36 30
14 13 12 12 12 12 12 12 14 14 16 18 21 25 31 35 41 41 38 43 44 38 37 38 55 69 75 77 63 57 61 58 58 73 71 52 40 38 45 39 37 36 29
15 14 13 14 14 14 14 13 14 16 17 18 20 23 29 35 39 39 41 39 41 36 36 37 43 66 76 78 62 60 62 60 69 91 79 55 44 45 55 36 28 27 28
18 16 15 15 15 16 16 15 15 16 18 18 19 22 27 32 36 41 41 38 39 40 40 41 50 58 68 78 62 59 67 64 55 71 72 60 40 40 43 33 27 26 28
20 18 17 16 16 16 17 17 16 16 19 19 20 21 25 28 32 35 39 41 42 46 49 51 51 61 82 81 70 60 69 74 59 62 71 52 39 32 31 31 27 26 26
25 20 19 18 17 17 17 18 18 18 19 21 21 22 24 27 32 35 41 48 53 57 61 62 57 63 85 88 85 69 77 74 56 53 73 52 40 31 27 26 24 25 25
26 21 16 18 18 17 17 17 18 19 19 22 23 23 25 28 34 39 47 54 62 57 60 70 72 65 69 83 86 77 75 67 55 51 59 49 41 32 24 23 25 23 25
23 23 17 17 18 18 18 18 18 19 19 21 23 26 28 30 35 40 47 47 46 46 61 74 71 70 78 86 88 77 62 61 53 51 50 44 41 38 27 24 24 26 29
26 25 21 19 18 19 19 19 19 19 20 20 22 25 28 31 36 40 47 48 48 48 63 78 75 66 75 84 75 69 60 55 51 49 46 47 42 33 29 30 33 31 25
26 27 26 24 23 22 20 20 21 20 20 21 23 25 27 30 34 40 47 49 51 54 67 82 78 74 77 86 85 75 58 51 48 44 47 50 42 33 30 33 30 24 25
24 26 28 30 29 26 25 22 21 23 21 22 23 25 26 30 34 39 47 51 52 55 58 82 92 88 86 87 89 91 74 56 50 44 45 46 42 34 30 27 25 32 36
28 27 27 33 34 29 24 27 26 25 24 23 25 27 28 29 36 41 49 52 55 56 52 66 89 88 91 90 97 93 86 64 53 50 46 49 45 36 31 25 28 34 36
30 29 26 29 31 29 25 27 26 24 25 25 32 30 31 33 37 43 51 55 57 60 56 54 75 90 89 93 95 90 87 72 63 45 44 45 39 38 33 33 35 45 38
32 32 30 32 33 35 36 32 27 26 24 26 32 35 33 34 42 45 53 57 60 61 59 52 58 77 88 93 95 97 91 85 79 63 47 46 37 38 35 39 38 36 35
36 34 35 40 42 40 34 35 35 31 27 26 27 31 37 37 43 51 56 57 59 60 63 54 56 71 84 90 94 98 93 93 91 65 46 49 44 41 41 39 35 35 37
34 34 36 35 33 31 31 35 37 30 27 22 24 32 33 38 47 52 59 60 58 63 57 56 51 67 77 80 90 98 97 96 92 76 55 56 52 46 45 41 38 34 35
31 32 33 31 30 32 32 28 25 25 19 15 18 21 30 33 48 53 61 62 59 60 59 53 49 59 73 79 84 95 98 97 92 88 71 60 55 52 50 42 42 37 37
32 31 28 27 27 26 25 21 21 23 24 22 22 23 28 32 42 55 61 63 62 62 58 49 48 52 67 74 82 87 86 92 91 90 77 64 59 56 54 47 50 41 39
39 33 28 30 22 21 22 25 28 25 26 24 21 25 38 40 45 53 61 65 68 66 60 47 44 52 62 71 84 85 84 85 90 95 86 73 68 62 57 54 53 44 38
50 43 36 23 24 27 31 32 32 32 30 31 28 37 46 43 49 51 66 66 69 66 58 46 42 54 57 69 78 86 89 90 89 88 88 76 71 67 59 60 58 51 44
51 45 32 24 25 27 30 35 44 40 36 36 38 43 48 48 48 52 63 66 68 65 57 40 45 50 60 74 83 85 91 89 86 85 86 81 69 65 61 65 61 58 53